Terminal Aerodrome Forecast
Issued by NWS

Home | Current Version | Previous Version | Text Only | Print | Product List | Glossary On
Versions: 1 2 3 4 5 6 7 8 9 10 11 12 13 14 15 16 17 18 19 20 21 22 23 24 25 26 27 28 29 30 31 32 33 34
000
FTUS45 KREV 220532
TAFTVL
TAF
KTVL 220532Z 2206/2306 19011KT 6SM -SHSN SCT020 OVC050
     FM220800 18014G26KT 1/2SM SN OVC009 WS020/24045KT
     FM221200 19026G35KT 1/2SM SN OVC005 WS020/24045KT
     FM222300 19016G24KT 1/2SM SN FG OVC003=

USA.gov is the U.S. government's official web portal to all federal, state and local government web resources and services.